Вернуться в каталог

FENGYUN 1C DEB

АктивенSSO
NORAD 29781·DEBRIS·🇨🇳 China

Запущен May 10, 1999 с Taiyuan Satellite Launch Center

Loading…

Ближайшие Пролёты (ближайшие 24 часа)

TLE

СвежийSource: Space-Track

Эпоха: Sep 14, 2026, 22:29 UTC

1 29781U 99025BX  26257.93682832  .00000541  00000-0  34934-3 0  9991
2 29781  98.8265 249.6494 0072622 118.4031 271.4905 14.05742103  5215

Отслеживайте FENGYUN 1C DEB в реальном времени с AllMySat

Download on the App Store